Kaltag, AK

6:28 PM AKST on December 11, 2019 (GMT -0900)
Kaltag

Weather History for PAKV - November, 2019

Change the Weather History Date:

Tuesday, November 12, 2019

  Actual Average (WUND) Record (WUND)
Temperature  
Mean Temperature 20 °F -  
Max Temperature 27 °F - - (-1)
Min Temperature 14 °F - - (-1)
Degree Days  
Heating Degree Days 44    
Moisture  
Dew Point 15 °F    
Average Humidity 72    
Maximum Humidity 93    
Minimum Humidity 52    
Precipitation  
Precipitation 0.00 in - - ()
Sea Level Pressure  
Sea Level Pressure 29.92 in    
Wind  
Wind Speed 8 mph ()    
Max Wind Speed 16 mph    
Max Gust Speed 30 mph    
Visibility 9.0 miles    
Events Snow    
Averages and records for this station are not official NWS values.
T = Trace of Precipitation, MM = Missing Value Source: Averaged Metar Reports

Daily Weather History Graph

Daily Weather History Graph

Search for Another Location

Airport or City:

Astronomy

Nov. 12, 2019 Rise Set
Actual Time 9:55 AM AKST 4:41 PM AKST
Civil Twilight 8:56 AM AKST 5:40 PM AKST
Nautical Twilight 7:56 AM AKST 6:40 PM AKST
Astronomical Twilight 6:59 AM AKST 7:37 PM AKST
Moon 5:22 PM AKST 9:44 AM AKST
Length of Visible Light 8h 44m
Length of Day
6h 46m
Full, 100% of the Moon is Illuminated
Nov 12
Full
Nov 19
Last Quarter
Nov 26
New
Dec 3
First Quarter
Dec 11
Full

Hourly Weather History & Observations

Time (AKST) Temp. Windchill Dew Point Humidity Pressure Visibility Wind Dir Wind Speed Gust Speed Precip Events Conditions
12:53 AM 14.0 °F - 10.0 °F 84% 29.91 in 10.0 mi Calm Calm - N/A   Partly Cloudy
1:53 AM 23.0 °F 15.8 °F 19.9 °F 88% 29.91 in 10.0 mi ENE 5.8 mph - N/A   Overcast
2:41 AM 25.0 °F 18.1 °F 21.0 °F 85% 29.88 in 10.0 mi ENE 5.8 mph - N/A   Overcast
2:53 AM 25.0 °F 16.3 °F 21.0 °F 85% 29.89 in 10.0 mi NE 8.1 mph - N/A   Overcast
3:53 AM 26.1 °F 17.6 °F 23.0 °F 88% 29.89 in 5.0 mi ENE 8.1 mph - N/A   Overcast
4:23 AM 26.1 °F 17.6 °F 24.1 °F 92% 29.88 in 4.0 mi ENE 8.1 mph - N/A   Overcast
4:42 AM 26.1 °F 17.6 °F 24.1 °F 92% 29.88 in 2.5 mi ENE 8.1 mph - 0.00 in Snow Light Snow
4:49 AM 26.6 °F 16.2 °F 24.8 °F 93% 29.88 in 4.0 mi ENE 11.5 mph - 0.00 in Snow Light Snow
4:50 AM 27.0 °F 16.7 °F 24.1 °F 89% 29.89 in 4.0 mi NE 11.5 mph - 0.00 in Snow Light Snow
5:53 AM 26.1 °F 15.6 °F 21.9 °F 84% 29.90 in 10.0 mi ENE 11.5 mph - 0.00 in   Mostly Cloudy
6:09 AM 25.0 °F 16.3 °F 21.9 °F 88% 29.88 in 10.0 mi ENE 8.1 mph - N/A   Partly Cloudy
6:43 AM 25.0 °F 14.8 °F 21.0 °F 85% 29.89 in 10.0 mi NE 10.4 mph - N/A   Mostly Cloudy
6:53 AM 25.0 °F 13.6 °F 21.0 °F 85% 29.90 in 10.0 mi NE 12.7 mph 19.6 mph N/A   Overcast
7:53 AM 25.0 °F 14.8 °F 17.1 °F 72% 29.91 in 10.0 mi NE 10.4 mph 21.9 mph N/A   Overcast
8:53 AM 24.1 °F 13.1 °F 15.1 °F 69% 29.91 in 10.0 mi NE 11.5 mph 18.4 mph N/A   Overcast
10:51 AM 23.0 °F 11.7 °F 10.4 °F 59% 29.92 in 10.0 mi NE 11.5 mph 19.6 mph N/A   Overcast
10:53 AM 23.0 °F 13.1 °F 10.9 °F 60% 29.93 in 10.0 mi ENE 9.2 mph 19.6 mph N/A   Overcast
11:53 AM 21.9 °F 11.0 °F 10.0 °F 60% 29.93 in 10.0 mi ENE 10.4 mph - N/A   Partly Cloudy
12:53 PM 21.9 °F 9.8 °F 10.0 °F 60% 29.93 in 10.0 mi NE 12.7 mph 23.0 mph N/A   Clear
1:53 PM 23.0 °F 12.4 °F 10.9 °F 60% 29.94 in 10.0 mi NE 10.4 mph 23.0 mph N/A   Scattered Clouds
2:00 PM 23.0 °F 10.1 °F 10.9 °F 60% 29.92 in 10.0 mi NE 15.0 mph 21.9 mph N/A   Mostly Cloudy
2:53 PM 23.0 °F 12.4 °F 10.9 °F 60% 29.94 in 10.0 mi NE 10.4 mph 24.2 mph N/A   Mostly Cloudy
3:03 PM 23.0 °F 11.7 °F 10.9 °F 60% 29.93 in 10.0 mi NE 11.5 mph 18.4 mph N/A   Scattered Clouds
3:53 PM 21.9 °F 9.8 °F 10.9 °F 63% 29.94 in 10.0 mi NE 12.7 mph 21.9 mph N/A   Clear
4:53 PM 21.9 °F 10.4 °F 10.9 °F 63% 29.94 in 10.0 mi ENE 11.5 mph 21.9 mph N/A   Clear
5:53 PM 21.9 °F 11.7 °F 10.0 °F 60% 29.95 in 10.0 mi ENE 9.2 mph - N/A   Clear
6:53 PM 21.0 °F 8.6 °F 9.0 °F 60% 29.96 in 10.0 mi NE 12.7 mph 25.3 mph N/A   Clear
7:53 PM 19.9 °F 6.7 °F 7.0 °F 57% 29.98 in 10.0 mi NE 13.8 mph 24.2 mph N/A   Unknown
8:53 PM 19.0 °F 6.1 °F 6.1 °F 57% 29.99 in 10.0 mi ENE 12.7 mph - N/A   Clear
9:53 PM 18.0 °F 4.8 °F 3.0 °F 52% 30.00 in 10.0 mi NE 12.7 mph 23.0 mph N/A   Clear
10:53 PM 17.1 °F 2.0 °F 1.9 °F 52% 30.00 in 10.0 mi NE 16.1 mph 29.9 mph N/A   Clear